STARLINK-1012, 44718

Orbit data source: Space-Track

STARLINK-1012, 44718 is a payload satellite owned by SpaceX/Seattle (US) in LEO that was launched on Mon, 11 Nov 2019 UTC via an FALCON 9 launch vehicle from the Air Force Eastern Test Range (AFETR). Payload-class satellites include a variety of spacecraft equipped with specific instruments for various scientific and technological missions. These include communications satellites like Starlink; space stations such as the ISS; scientific satellites like the Hubble; Earth observation satellites from companies like Planet Labs, Umbra, and HawkEye 360; GPS; miniature CubeSats for education and research; and military/defense satellites.

Loading next visibility...
Identifier
44718, 2019-074F
Orbit
LEO
Country
Flag of USUS
Related business
Manufacturer
SpaceX/Seattle
Mission
Partially operational Commercial Communications
Bus & Motor
STARLINK, Unknown motor
Mass
260 kg wet, ~248 kg dry
Launch date (UTC)
2019-11-11 (7 years ago)
Launch vehicle
FALCON 9
Launch site
Air Force Eastern Test Range (AFETR)
Object type
Payload
Rocket body
Debris
Shape & HBR
Box + 1 Pan, 10.1 m
Radar Cross Section
13.562 m², Large (>1 m²)

Expand to show TLE details & history
Last TLE update: 2 days ago

TLE from 2 days ago
0 STARLINK-1012
1 44718U 19074F   26171.27217530  .00052054  00000-0  89045-3 0  9994
2 44718  53.1559  54.2188 0002091 158.1531 201.9568 15.50775749364686
Epoch: 2026-06-20T06:31Z
TLE epoch observation values (Epoch: 2026-06-20T06:31:55.945Z)
Latitude
-0.00006°
Longitude
47.74647°
Altitude
416.684 km
Speed
7.662 km/s
True Right ascension
03h 36m 52s
True Declination
0° 00' 00"
Sunlit
Object was in daylight at epoch
Visualization orbit readout
Latitude
Unknown
Longitude
Unknown
Altitude
Unknown
Speed
Unknown
Apparent Right ascension
Unknown
Apparent Declination
Unknown
Sunlit
N/A
Visualization observer readout
Local Sidereal Time
21:37:29
Azimuth
Unknown
Elevation
Unknown
Doppler factor
Unknown
Orbital elements
Apogee altitude
416.14 km
Perigee altitude
413.299 km
Semi-major axis
6,792.856 km
Eccentricity
0.00021
Inclination
53.1559°
RAAN
54.2188°
Arg. of periapsis
158.1531°
True anomaly
201.94784°
Mean anomaly
201.9568°
Eccentric anomaly
201.95232°
Mean motion
3.87672 °/min
Orbital period
92.86 mins
BSTAR
0.00089045
Loading maneuver chart data...
Computing Atmospheric mass density...

Documentation

Showing up to 5 results
|